Regional Weather Roundup
Issued by NWS Charleston, SC

Current Version | Previous Version | Graphics & Text | Print | Product List | Glossary On
Versions: 1 2 3 4 5 6 7 8 9 10 11 12 13 14 15 16 17 18 19 20 21 22 23 24 25 26 27 28 29 30 31 32 33 34 35 36 37 38 39 40 41 42 43 44 45 46 47 48 49 50
219 ASUS42 KCHS 281713 RWRCHS REGIONAL WEATHER ROUNDUP NATIONAL WEATHER SERVICE CHARLESTON SC 100 PM EDT THU JUL 28 2016 NOTE: "FAIR" INDICATES FEW OR NO CLOUDS BELOW 12,000 FEET WITH NO SIGNIFICANT WEATHER AND/OR OBSTRUCTIONS TO VISIBILITY. NOT ALL STATIONS ARE QUALITY CONTROLLED. USE DATA WITH CAUTION... ESPECIALLY DEWPOINT OBSERVATIONS. SCZ027-030-031-034>040-042>050-281800- ...SOUTHEAST SOUTH CAROLINA... CITY SKY/WX TMP DP RH WIND PRES REMARKS N CHARLESTON MOSUNNY 95 70 44 SW13G21 29.99F HX 101 WATERFRONT PRK N/A 91 73 55 VRB3 29.99F HX 99 MOUNT PLEASANT FAIR 93 73 52 W8 29.99F HX 102 JOHNS ISLAND FAIR 95 73 49 W8G15 30.00S HX 105 PINOPOLIS N/A 90 73 58 SW8 29.92F HX 98 MONCKS CORNER FAIR 91 66 43 SW6G18 29.98F HX 94 SUMMERVILLE FAIR 95 72 46 W10 30.00F HX 103 BEAUFORT MCAS SUNNY 97 69 40 W10G20 30.01S HX 103 BEAUFORT ARPT FAIR 93 72 49 W12G17 30.01S HX 100 HILTON HEAD IS MOSUNNY 99 68 36 W9 30.02F HX 104 WALTERBORO MOSUNNY 95 70 43 SW6G17 30.01F HX 101 ALLENDALE NOT AVBL ...SOUTHERN MIDLANDS AND PEE DEE... CITY SKY/WX TMP DP RH WIND PRES REMARKS GEORGETOWN NOT AVBL KINGSTREE FAIR 95 68 41 SW10 29.97F HX 99 ORANGEBURG MOSUNNY 94 70 45 W14G21 29.99F HX 100 BARNWELL NOT AVBL AIKEN FAIR 91 66 43 SW13G23 30.02F HX 94 MANNING FAIR 91 68 46 W8G16 29.97F HX 95 COLUMBIA MOSUNNY 95 68 41 SW9G20 29.95F HX 99 SUMTER SUNNY 94 69 44 SW15 29.95F HX 99 FLORENCE SUNNY 93 72 50 SW9G18 29.96F HX 101 MYRTLE BEACH NOT AVBL N MYRTLE BEACH SUNNY 95 70 44 NW8 29.96F HX 101 $$ GAZ063-065-086>088-099>101-113>116-118-119-134>141-150-281800- ...SOUTHEAST GEORGIA... CITY SKY/WX TMP DP RH WIND PRES REMARKS SAVANNAH ARPT MOSUNNY 96 67 38 W10G23 30.02S HX 100 HUNTER AAF NOT AVBL FORT STEWART NOT AVBL STATESBORO SUNNY 92 73 53 W7 30.02F HX 101 SYLVANIA NOT AVBL CLAXTON FAIR 94 70 46 SW9 30.02F HX 100 ...CSRA...CENTRAL AND FAR SOUTHEAST GEORGIA... CITY SKY/WX TMP DP RH WIND PRES REMARKS THOMSON NOT AVBL AUGUSTA-BUSH SUNNY 96 65 35 W17G24 29.98F HX 98 AUGUSTA-DANIEL SUNNY 94 67 41 MISG 30.00F HX 97 SWAINSBORO FAIR 93 68 43 W10 30.03F HX 97 VIDALIA MOSUNNY 95 64 36 SW14G22 30.03F HX 97 EASTMAN FAIR 93 52 24 W10G17 30.06F HX 90 HAZLEHURST FAIR 96 68 40 CALM 30.03F HX 100 ALMA SUNNY 95 64 35 W10G18 30.04F HX 97 WAYCROSS SUNNY 99 70 39 W6 30.04F HX 106 JESUP FAIR 97 72 44 W13G21 30.03F HX 105 BAXLEY FAIR 95 72 46 SW8G16 30.04S HX 103 BRUNSWICK MOSUNNY 97 73 46 SW10 30.04S HX 107 SAINT SIMONS SUNNY 95 71 45 SW8 30.03F HX 102 $$ SCZ027-028-034-036>038-045-046-048>050-GAZ119-141-281800- ...LAKE AND SUPPLEMENTAL COASTAL OBSERVATIONS... STATION/POSITION TIME TEMP WIND PRES WAVE SWELL AIR SEA DIR/SP/G HT/PER HT/PER/DIR (UTC) (F) (DEG/KT/KT) (MB) (FT/S) (FT/S/D) WINYAH BAY 1545 90 280/ 8 1015.0 LAKE MURRAY 1600 89 200/ 6/ 12 1014.6F ACE BASIN NERRS NOT AVBL FORT PULASKI 1600 92 87 240/ 6/ 9 1017.1F SAPELO ISLAND 1600 92 250/ 8 1017.0F $$ ANZ835-935-AMZ111-154-330-350-352-354-370-450-454-472-281800- ...C-MAN AND BUOY OBSERVATIONS... STATION/POSITION TIME TEMP WIND PRES WAVE SWELL AIR SEA DIR/SP/G HT/PER HT/PER/DIR (UTC) (F) (DEG/KT/KT) (MB) (FT/S) (FT/S/D) BUOY 41004 1650 85 86 260/ 8/ 10 1016.0F 4/ 6 3/230/ 6 BUOY 41008 1650 86 87 170/ 6/ 6 1017.1F 2/ 8 2/ 80/ 8 FOLLY BEACH CMAN 1700 88 190/ 12/ 14 1016.2F CAPERS NEARSHORE 1608 87 85 210/ 4/ 8 1016.0F FRIPP NEARSHORE 1608 87 87 250/ 8/ 10 1016.0F STATION/POSITION TIME TEMP WIND PRES WAVE SWELL AIR SEA DIR/SP/G HT/PER HT/PER/DIR (UTC) (F) (DEG/KT/KT) (MB) (FT/S) (FT/S/D) 5E ST. MARYS GA 1701 88 N/A 1/ 7 FRYING PAN BUOY 1600 85 85 260/ 12/ 14 1015.0F BUOY 41025 1650 85 85 230/ 12/ 16 1013.6F 2/ 6 2/210/ 6 CAPE LOOKOUT NC 1600 86 240/ 10/ 12 1013.7F BUOY 41002 1650 82 85 260/ 16/ 17 1016.5F 3/ 6 2/130/ 8 BUOY 41010 1620 85 87 250/ 8/ 10 1018.8F ST AUGUSTINE FL 1700 85 86 70/ 6/ 7 1018.6F $$

USA.gov is the U.S. government's official web portal to all federal, state and local government web resources and services.